小惑星2020 HB11

2020 HB11

English version
Home page
Updated on May 30, 2020

---------------------------------------------------------------------

・ プロフィール

発見日 2020年4月18日
発見光度 22.6等
発見者 Mt. Lemmon Survey

・ 軌道要素

Epoch 2020 May 1.0 TT = JDT 2458970.5                   Bell                    
M 358.32051              (2000.0)            P               Q                  
n   0.01465254     Peri.  104.53843     -0.85116626     -0.13505808             
a  16.5396908      Node   290.14525     -0.24918388     +0.95446791             
e   0.7074730      Incl.  147.29758     +0.46197770     +0.26598933             
P  67.3            H   14.99          G   0.15           U   7                  

・ 光度変化

        H = 15.0  G = 0.15

---------------------------------------------------------------------

軌道要素はM.P.E.C. 2020-K199に掲載されたものです。
光度グラフはComet for Windowsで作成したものです。

---------------------------------------------------------------------

Copyright(C) Seiichi Yoshida (comet@aerith.net). All rights reserved.